Miscellaneous Local Product
Issued by NWS North Platte, NE

Home | Current Version | Previous Version | Text Only | Print | Product List | Glossary On
Versions: 1 2 3 4 5 6 7 8 9 10 11 12 13 14 15 16 17 18 19 20 21 22 23 24 25 26 27 28 29 30 31 32 33 34 35 36 37 38 39 40 41 42 43 44 45 46 47 48 49 50
793
AXUS43 KLBF 031710
MISLBF


WESTERN AND NORTH CENTRAL NEBRASKA HOURLY WEATHER ROUNDUP
NATIONAL WEATHER SERVICE NORTH PLATTE NE
1200 PM CDT TUE MAY 03 2016

NOTE: "FAIR" INDICATES FEW OR NO CLOUDS BELOW 12,000 FEET WITH NO
SIGNIFICANT WEATHER AND/OR OBSTRUCTIONS TO VISIBILITY.

NOTE: STATIONS NOT REPORTING VARIABLES SUCH AS SKY/WEATHER OR
PRESSURE ARE PROVIDED BY RAWS AND APRS NETWORKS AND ARE NOT UNDER
NATIONAL WEATHER SERVICE QUALITY CONTROL.

...OBSERVATIONS IN AND NEAR THE EASTERN PANHANDLE OF NEBRASKA...

CITY           SKY/WX    TMP DP  RH WIND       PRES   REMARKS
PINE RIDGE     SUNNY     60  38  43 VRB6      30.13S
CHADRON        SUNNY     66  33  29 N14       30.14R
ALLIANCE       SUNNY     60  38  43 N13       30.13S
SIDNEY         SUNNY     59  36  42 N14G20    30.17S
CRESCENT LAKE    N/A     59  39  47 N12         N/A
BIG SPRINGS      N/A     54  46  74 N6          N/A
$$

...OBSERVATIONS IN NORTHERN NEBRASKA AND FAR SOUTHERN SOUTH DAKOTA...

CITY           SKY/WX    TMP DP  RH WIND       PRES   REMARKS
WINNER         FAIR      63  43  48 W13       30.06F
VALENTINE      SUNNY     62  40  44 NW9       30.09S
THEDFORD       SUNNY     59  42  52 NW6       30.11S
AINSWORTH      SUNNY     60  41  50 W9        30.09S
O`NEILL        SUNNY     62  41  46 W9        30.07S
ORD            SUNNY     63  43  48 VRB5      30.07S
BROKEN BOW     SUNNY     60  41  49 VRB3      30.09R
VALENTINE NWR    N/A     58  42  56 NW8         N/A
BUTTE            N/A     60  44  55 W14G21      N/A
HALSEY           N/A     59  43  55 W5          N/A
CHAMBERS         N/A     63  42  47 N5          N/A
EWING            N/A     62  46  55 W8          N/A
$$

...OBSERVATIONS IN SOUTHWEST NEBRASKA AND FAR NORTHEAST COLORADO...

CITY           SKY/WX    TMP DP  RH WIND       PRES   REMARKS
HOLYOKE        FAIR      59  41  51 N14G20    30.15S
IMPERIAL       SUNNY     56  44  64 N12       30.14R
OGALLALA       SUNNY     58  38  48 N10       30.13S
NORTH PLATTE   SUNNY     58  47  66 W6        30.12R
MCCOOK         MOSUNNY   57  44  62 NW8       30.11R
LEXINGTON      SUNNY     61  44  54 NE6       30.10R
PAXTON           N/A     51  48  90 CALM        N/A
STAPLETON        N/A     58  44  59 CALM        N/A
GOTHENBURG       N/A     58  38  48 N7          N/A
CALLAWAY         N/A     57  43  60 N3          N/A
$$

...OBSERVATIONS IN CENTRAL LINCOLN COUNTY AREA...

CITY           SKY/WX    TMP DP  RH WIND       PRES   REMARKS
N.P. AIRPORT   SUNNY     58  47  66 W6        30.12R
N.P. DOWNTOWN    N/A     56  46  70 NW3         N/A
N.P. HILLCREST   N/A     56  45  66 N3          N/A
$$

...SOME OBSERVATIONS FROM AROUND THE REGION...

CITY           SKY/WX    TMP DP  RH WIND       PRES   REMARKS
DENVER         MOSUNNY   59  30  33 N20       30.23R
LARAMIE        MOSUNNY   46  33  60 VRB7      30.30R
CHEYENNE       MOSUNNY   55  31  39 MISG      30.25R
SCOTTSBLUFF    SUNNY     65  38  36 NW15G21   30.16R
RAPID CITY     SUNNY     67  39  35 N14       30.11S
BISMARCK       SUNNY     71  38  29 NW15G24   30.00R
PIERRE         SUNNY     65  45  48 NW15      30.02F
SIOUX FALLS    MOSUNNY   63  44  50 NW16G24   29.98F
OMAHA          MOSUNNY   67  39  35 NW14      30.04F
GRAND ISLAND   SUNNY     61  37  41 CALM      30.08S
KANSAS CITY    MOSUNNY   64  43  46 W5        30.07F
WICHITA        MOSUNNY   65  47  52 VRB5      30.08S
OKLAHOMA CITY  MOSUNNY   66  42  41 W7        30.12S
DALLAS         MOSUNNY   69  44  40 N10       30.13S
AMARILLO       SUNNY     63  40  42 NE10      30.15F
DODGE CITY     MOSUNNY   63  38  39 N16       30.08R
HAYS           MOSUNNY   63  41  45 N8        30.08R
GOODLAND       PTSUNNY   56  39  53 N15       30.13R
$$




USA.gov is the U.S. government's official web portal to all federal, state and local government web resources and services.